| ID | Date/Heure | Temp (Β°C) | HumiditΓ© (%) | Pression (hPa) | Tendance | LuminositΓ© (lux) | Situation |
|---|---|---|---|---|---|---|---|
| 5891 | 12/04/2026 07:15 | 9.4 | 86.0 | 1,015.8 | β Stable | 21,384 | pluvieux-gris |
| 5890 | 12/04/2026 06:45 | 8.9 | 89.0 | 1,015.1 | β Stable | 15,468 | pluvieux-gris |
| 5889 | 12/04/2026 06:30 | 8.4 | 92.0 | 1,015.1 | β Stable | 8,520 | pluvieux-gris |
| 5888 | 12/04/2026 06:15 | 8.2 | 93.0 | 1,015.1 | β Stable | 5,376 | pluvieux-gris |
| 5887 | 12/04/2026 05:45 | 7.8 | 94.0 | 1,015.5 | β Stable | 1,116 | pluvieux-gris |
| 5886 | 12/04/2026 05:15 | 8.0 | 92.0 | 1,015.5 | β Stable | 0 | pluvieux-gris |
| 5885 | 12/04/2026 04:45 | 8.1 | 92.0 | 1,015.7 | β Stable | 0 | pluvieux-gris |
| 5884 | 12/04/2026 04:30 | 8.0 | 92.0 | 1,015.7 | β Stable | 0 | pluvieux-gris |
| 5883 | 12/04/2026 04:15 | 8.2 | 92.0 | 1,015.7 | β Stable | 0 | pluvieux-gris |
| 5882 | 12/04/2026 03:45 | 8.3 | 91.0 | 1,015.9 | β Stable | 0 | pluvieux-gris |
| 5881 | 12/04/2026 03:30 | 8.5 | 91.0 | 1,015.9 | β Stable | 0 | pluvieux-gris |
| 5880 | 12/04/2026 03:15 | 8.6 | 90.0 | 1,015.9 | β Stable | 0 | pluvieux-gris |
| 5879 | 12/04/2026 02:45 | 8.8 | 89.0 | 1,016.5 | β Stable | 0 | pluvieux-gris |
| 5878 | 12/04/2026 02:30 | 8.5 | 90.0 | 1,016.5 | β Stable | 0 | pluvieux-gris |
| 5877 | 12/04/2026 02:15 | 8.5 | 90.0 | 1,016.5 | β Stable | 0 | pluvieux-gris |
| 5876 | 12/04/2026 01:45 | 8.8 | 86.0 | 1,016.6 | β Stable | 0 | pluvieux-gris |
| 5875 | 12/04/2026 01:30 | 9.2 | 81.0 | 1,016.6 | β Stable | 0 | pluvieux-gris |
| 5874 | 12/04/2026 01:15 | 9.3 | 80.0 | 1,016.7 | β Stable | 0 | pluvieux-gris |
| 5873 | 12/04/2026 00:45 | 9.4 | 79.0 | 1,017.0 | β Stable | 0 | pluvieux-gris |
| 5872 | 12/04/2026 00:30 | 9.6 | 79.0 | 1,017.0 | β Stable | 0 | pluvieux-gris |
| 5871 | 12/04/2026 00:15 | 9.6 | 79.0 | 1,017.0 | β Stable | 0 | pluvieux-gris |
| 5870 | 11/04/2026 23:45 | 9.7 | 79.0 | 1,016.7 | β Stable | 0 | pluvieux-gris |
| 5869 | 11/04/2026 23:30 | 9.6 | 79.0 | 1,016.7 | β Stable | 0 | pluvieux-gris |
| 5868 | 11/04/2026 23:15 | 9.6 | 79.0 | 1,016.7 | β Stable | 0 | pluvieux-gris |
| 5867 | 11/04/2026 22:45 | 9.8 | 78.0 | 1,017.3 | β Stable | 0 | pluvieux-gris |
| 5866 | 11/04/2026 22:30 | 9.7 | 78.0 | 1,017.3 | β Stable | 0 | pluvieux-gris |
| 5865 | 11/04/2026 22:15 | 9.7 | 78.0 | 1,017.3 | β Stable | 0 | pluvieux-gris |
| 5864 | 11/04/2026 21:45 | 9.9 | 78.0 | 1,017.8 | β Stable | 0 | pluvieux-gris |
| 5863 | 11/04/2026 21:30 | 9.8 | 79.0 | 1,017.8 | β Stable | 0 | pluvieux-gris |
| 5862 | 11/04/2026 21:15 | 9.8 | 79.0 | 1,017.8 | β Stable | 0 | pluvieux-gris |
| 5861 | 11/04/2026 20:45 | 10.0 | 80.0 | 1,017.4 | β Stable | 0 | pluvieux-gris |
| 5860 | 11/04/2026 20:30 | 10.1 | 80.0 | 1,017.4 | β Stable | 0 | pluvieux-gris |
| 5859 | 11/04/2026 20:15 | 10.3 | 80.0 | 1,017.4 | β Stable | 0 | pluvieux-gris |
| 5858 | 11/04/2026 19:45 | 10.4 | 87.0 | 1,016.7 | β Stable | 0 | pluvieux-gris |
| 5857 | 11/04/2026 19:30 | 10.4 | 87.0 | 1,016.7 | β Stable | 0 | pluvieux-gris |
| 5856 | 11/04/2026 19:15 | 10.4 | 88.0 | 1,016.7 | β Stable | 0 | pluvieux-gris |
| 5855 | 11/04/2026 18:45 | 10.5 | 88.0 | 1,016.3 | β Stable | 180 | pluvieux-gris |
| 5854 | 11/04/2026 18:30 | 11.0 | 73.0 | 1,016.3 | β Stable | 828 | pluvieux-gris |
| 5853 | 11/04/2026 18:15 | 11.0 | 75.0 | 1,016.3 | β Stable | 1,572 | pluvieux-gris |
| 5852 | 11/04/2026 17:45 | 11.2 | 78.0 | 1,016.5 | β Hausse | 3,060 | pluvieux-gris (approx.) |
| 5851 | 11/04/2026 17:30 | 11.1 | 83.0 | 1,016.5 | β Stable | 4,632 | pluvieux-gris |
| 5850 | 11/04/2026 17:15 | 11.1 | 86.0 | 1,016.5 | β Stable | 5,088 | pluvieux-gris |
| 5849 | 11/04/2026 16:45 | 11.3 | 89.0 | 1,015.5 | β Stable | 6,384 | pluvieux-gris |
| 5848 | 11/04/2026 16:30 | 11.3 | 88.0 | 1,015.5 | β Stable | 9,168 | pluvieux-gris |
| 5847 | 11/04/2026 16:15 | 11.5 | 87.0 | 1,015.5 | β Stable | 11,112 | pluvieux-gris |
| 5846 | 11/04/2026 15:45 | 11.6 | 85.0 | 1,015.6 | β Stable | 13,800 | pluvieux-gris |
| 5845 | 11/04/2026 15:15 | 11.1 | 88.0 | 1,015.6 | β Stable | 13,152 | pluvieux-gris |
| 5844 | 11/04/2026 14:45 | 11.5 | 83.0 | 1,014.1 | β Stable | 15,552 | pluvieux-gris |
| 5843 | 11/04/2026 14:15 | 12.1 | 85.0 | 1,014.1 | β Stable | 19,728 | pluvieux-gris |
| 5842 | 11/04/2026 13:45 | 13.2 | 79.0 | 1,013.7 | β Stable | 21,108 | pluvieux-gris |
| 5841 | 11/04/2026 13:15 | 14.4 | 76.0 | 1,013.4 | β Stable | 24,168 | pluvieux-gris |
| 5840 | 11/04/2026 12:45 | 15.5 | 73.0 | 1,012.6 | β Stable | 26,760 | pluvieux-gris |
| 5839 | 11/04/2026 12:15 | 15.5 | 72.0 | 1,012.6 | β Stable | 19,260 | pluvieux-gris |
| 5838 | 11/04/2026 11:45 | 15.7 | 72.0 | 1,012.0 | β Stable | 19,356 | pluvieux-gris |
| 5837 | 11/04/2026 11:15 | 16.3 | 69.0 | 1,012.0 | β Stable | 22,500 | frais-stable |
| 5836 | 11/04/2026 10:45 | 15.8 | 73.0 | 1,013.2 | β Hausse | 23,892 | pluvieux-gris (approx.) |
| 5835 | 11/04/2026 10:30 | 15.6 | 75.0 | 1,013.2 | β Hausse | 18,708 | pluvieux-gris (approx.) |
| 5834 | 11/04/2026 10:15 | 15.6 | 73.0 | 1,013.2 | β Hausse | 18,240 | pluvieux-gris (approx.) |
| 5833 | 11/04/2026 09:45 | 15.5 | 74.0 | 1,011.6 | β Stable | 16,944 | pluvieux-gris |
| 5832 | 11/04/2026 09:15 | 15.3 | 74.0 | 1,011.6 | β Hausse | 22,128 | pluvieux-gris (approx.) |
| 5831 | 11/04/2026 08:45 | 15.2 | 76.0 | 1,009.9 | β Stable | 21,480 | pluvieux-gris |
| 5830 | 11/04/2026 08:15 | 15.2 | 73.0 | 1,009.9 | β Stable | 24,444 | pluvieux-gris |
| 5829 | 11/04/2026 07:45 | 14.5 | 81.0 | 1,010.6 | β Stable | 20,652 | pluvieux-gris |
| 5828 | 11/04/2026 07:15 | 14.1 | 84.0 | 1,010.6 | β Stable | 9,072 | pluvieux-gris |
| 5827 | 11/04/2026 06:45 | 14.2 | 86.0 | 1,008.5 | β Stable | 5,928 | pluvieux-gris |
| 5826 | 11/04/2026 06:15 | 14.4 | 91.0 | 1,008.5 | β Stable | 3,420 | pluvieux-gris |
| 5825 | 11/04/2026 05:45 | 14.3 | 93.0 | 1,007.3 | β Stable | 648 | pluvieux-gris |
| 5824 | 11/04/2026 05:15 | 13.4 | 92.0 | 1,007.3 | β Stable | 0 | pluvieux-gris |
| 5823 | 11/04/2026 04:45 | 13.4 | 91.0 | 1,006.6 | β Stable | 0 | pluvieux-gris |
| 5822 | 11/04/2026 04:15 | 13.8 | 89.0 | 1,006.6 | β Stable | 0 | pluvieux-gris |
| 5821 | 11/04/2026 03:45 | 13.5 | 91.0 | 1,005.9 | β Stable | 0 | pluvieux-gris |
| 5820 | 11/04/2026 03:15 | 13.4 | 91.0 | 1,005.9 | β Stable | 0 | pluvieux-gris |
| 5819 | 11/04/2026 02:45 | 13.7 | 90.0 | 1,006.0 | β Stable | 0 | pluvieux-gris |
| 5818 | 11/04/2026 02:15 | 14.1 | 90.0 | 1,006.0 | β Stable | 0 | pluvieux-gris |
| 5817 | 11/04/2026 01:45 | 14.4 | 89.0 | 1,007.1 | β Stable | 0 | pluvieux-gris |
| 5816 | 11/04/2026 01:15 | 14.6 | 89.0 | 1,007.0 | β Stable | 0 | pluvieux-gris |
| 5815 | 11/04/2026 00:45 | 14.9 | 88.0 | 1,007.8 | β Stable | 0 | pluvieux-gris |
| 5814 | 11/04/2026 00:15 | 15.2 | 87.0 | 1,007.8 | β Stable | 0 | pluvieux-gris |
| 5813 | 10/04/2026 23:45 | 15.6 | 86.0 | 1,008.2 | β Stable | 0 | pluvieux-gris |
| 5812 | 10/04/2026 23:15 | 15.9 | 86.0 | 1,008.2 | β Stable | 0 | pluvieux-gris |
| 5811 | 10/04/2026 22:45 | 16.2 | 85.0 | 1,008.6 | β Stable | 0 | pluvieux-gris (approx.) |
| 5810 | 10/04/2026 22:30 | 16.4 | 83.0 | 1,008.6 | β Stable | 0 | pluvieux-gris (approx.) |
| 5809 | 10/04/2026 22:15 | 16.6 | 82.0 | 1,008.6 | β Stable | 0 | pluvieux-gris (approx.) |
| 5808 | 10/04/2026 21:45 | 17.0 | 81.0 | 1,009.4 | β Stable | 0 | pluvieux-gris (approx.) |
| 5807 | 10/04/2026 21:30 | 17.2 | 82.0 | 1,009.4 | β Stable | 0 | pluvieux-gris (approx.) |
| 5806 | 10/04/2026 21:15 | 17.4 | 81.0 | 1,009.4 | β Stable | 0 | pluvieux-gris (approx.) |
| 5805 | 10/04/2026 20:45 | 17.8 | 79.0 | 1,009.7 | β Stable | 0 | pluvieux-gris (approx.) |
| 5804 | 10/04/2026 20:30 | 18.0 | 79.0 | 1,009.7 | β Stable | 0 | pluvieux-gris (approx.) |
| 5803 | 10/04/2026 20:15 | 18.3 | 78.0 | 1,009.7 | β Stable | 0 | pluvieux-gris (approx.) |
| 5802 | 10/04/2026 19:45 | 18.8 | 75.0 | 1,009.8 | β Stable | 0 | pluvieux-gris (approx.) |
| 5801 | 10/04/2026 19:30 | 19.5 | 70.0 | 1,009.8 | β Stable | 0 | pluvieux-gris (approx.) |
| 5800 | 10/04/2026 19:15 | 19.8 | 69.0 | 1,009.8 | β Stable | 0 | frais-stable |
| 5799 | 10/04/2026 18:45 | 20.4 | 65.0 | 1,010.0 | β Stable | 276 | frais-stable |
| 5798 | 10/04/2026 18:30 | 21.5 | 60.0 | 1,010.0 | β Baisse | 3,336 | conditions-neutrales-ou-non-definies |
| 5797 | 10/04/2026 18:15 | 21.9 | 58.0 | 1,010.0 | β Baisse | 7,500 | conditions-neutrales-ou-non-definies |
| 5796 | 10/04/2026 17:45 | 22.5 | 56.0 | 1,010.7 | β Stable | 16,296 | frais-stable |
| 5795 | 10/04/2026 17:30 | 22.9 | 54.0 | 1,010.7 | β Baisse | 22,128 | conditions-neutrales-ou-non-definies |
| 5794 | 10/04/2026 17:15 | 23.0 | 54.0 | 1,010.7 | β Baisse | 27,876 | conditions-neutrales-ou-non-definies |
| 5793 | 10/04/2026 16:45 | 23.2 | 53.0 | 1,011.4 | β Stable | 37,968 | conditions-neutrales-ou-non-definies |
| 5792 | 10/04/2026 16:15 | 23.3 | 53.0 | 1,011.4 | β Baisse | 49,728 | conditions-neutrales-ou-non-definies |